(321332) = 2007 RN222 = 2009 HF90

Discovered at Mount Lemmon on 2009-04-19 by Mt. Lemmon Survey.

Orbit

Orbit type: Main Belt

Note: WebGL enabled browser required.

epoch2023-09-13.0
epoch JD2460200.5
perihelion date2022-04-15.50098
perihelion JD2459685.00098
argument of perihelion (°)324.47184
ascending node (°)199.65077
inclination (°)4.45761
eccentricity0.1181468
perihelion distance (AU)1.9618352
Tisserand w.r.t. Jupiter3.6
ΔV w.r.t. Earth (km/sec)8.7
semimajor axis (AU)2.2246733
mean anomaly (°)153.12014
mean daily motion (°/day)0.29703290
aphelion distance (AU)2.488
period (years)3.32
P-vector [x]-0.96125823
P-vector [y]0.26745093
P-vector [z]0.06672796
Q-vector [x]-0.27440753
Q-vector [y]-0.90551267
Q-vector [z]-0.32364690
absolute magnitude17.57
phase slope0.15
uncertainty0
referenceMPEC 2023-X102
observations used340
oppositions13
arc length (days)9458
first opposition used1997
last opposition used2023
residual rms (arc-secs)0.68
perturbers coarse indicatorM-v
perturbers precise indicator003Ek
first observation date used1997-10-23.0
last observation date used2023-09-15.0
computer nameMPCLINUX
JD of orbit computation2456552.259017
perihelion JD uncertainty (days)1.0610E-04
argument of perihelion uncertainty (°)9.4799E-05
ascending node uncertainty (°)8.7283E-05
inclination uncertainty (°)1.0071E-05
eccentricity uncertainty 1.1081E-07
perihelion distance uncertainty (AU)2.5402E-07
Minimum Orbit Intersection Distances (in AU)
for orbit epoch: 2460200.5, reference: E2023-XA2
Mercury1.57544
Venus1.24854
Earth0.96958
Mars0.3248
Jupiter2.488
Saturn6.84023
Uranus16.4879
Neptune27.4051

Observations

332 total observations over interval: 1997 10 23.20965 – 2023 09 15.296034
These data are available for download (format description).

Date (UT) J2000 RA J2000 Dec Magn Location Ref
1997 10 23.20965 00 55 40.71 +05 47 06.6 21.0 V 691 – Steward Observatory, Kitt Peak-Spacewatch MPS 343762
1997 10 23.23071 00 55 39.54 +05 46 57.3 20.9 V 691 – Steward Observatory, Kitt Peak-Spacewatch MPS 343762
1997 10 23.25166 00 55 38.40 +05 46 47.8 21.0 V 691 – Steward Observatory, Kitt Peak-Spacewatch MPS 343762
1999 04 07.27484 12 36 36.82 -04 59 30.7 19.4 V 691 – Steward Observatory, Kitt Peak-Spacewatch MPS 343762
1999 04 07.29897 12 36 35.55 -04 59 17.5 19.7 V 691 – Steward Observatory, Kitt Peak-Spacewatch MPS 343762
1999 04 07.32008 12 36 34.44 -04 59 06.2 19.5 V 691 – Steward Observatory, Kitt Peak-Spacewatch MPS 343762
1999 04 07.34377 12 36 33.11 -04 58 53.3 19.5 V 691 – Steward Observatory, Kitt Peak-Spacewatch MPS 343762
1999 04 07.36694 12 36 31.90 -04 58 40.7 19.6 V 691 – Steward Observatory, Kitt Peak-Spacewatch MPS 343762
1999 04 07.38800 12 36 30.78 -04 58 29.2 19.3 V 691 – Steward Observatory, Kitt Peak-Spacewatch MPS 343762
2007 09 14.37709 01 51 23.47 +12 03 26.1 21.5 V G96 – Mt. Lemmon Survey MPS 216564
2007 09 14.38271 01 51 23.29 +12 03 24.9 21.2 V G96 – Mt. Lemmon Survey MPS 216564
2007 09 14.38819 01 51 23.14 +12 03 23.9 20.8 V G96 – Mt. Lemmon Survey MPS 216564
2007 09 14.39374 01 51 23.00 +12 03 22.2 21.1 V G96 – Mt. Lemmon Survey MPS 216564
2007 09 15.30918 01 50 59.96 +11 59 40.6 20.9 V G96 – Mt. Lemmon Survey MPS 216564
2007 09 15.31514 01 50 59.82 +11 59 38.9 20.7 V G96 – Mt. Lemmon Survey MPS 216564
2007 09 15.32108 01 50 59.64 +11 59 37.7 21.1 V G96 – Mt. Lemmon Survey MPS 216564
2007 09 15.32698 01 50 59.46 +11 59 36.4 20.9 V G96 – Mt. Lemmon Survey MPS 216564
2007 10 04.25482 01 38 17.73 +10 11 54.6   691 – Steward Observatory, Kitt Peak-Spacewatch MPS 342018
2007 10 04.27244 01 38 16.80 +10 11 47.3   691 – Steward Observatory, Kitt Peak-Spacewatch MPS 342018
2007 10 04.29006 01 38 15.80 +10 11 39.8   691 – Steward Observatory, Kitt Peak-Spacewatch MPS 342018
2007 10 18.27921 01 25 05.52 +08 25 09.3 20.1 V G96 – Mt. Lemmon Survey MPS 342018
2007 10 18.28469 01 25 05.19 +08 25 06.8 20.3 V G96 – Mt. Lemmon Survey MPS 342018
2007 10 18.29573 01 25 04.51 +08 25 01.4 20.3 V G96 – Mt. Lemmon Survey MPS 342018
2007 11 05.23464 01 09 02.73 +06 12 15.9 20.5 V G96 – Mt. Lemmon Survey MPS 342018
2007 11 05.24024 01 09 02.48 +06 12 14.2 21.0 V G96 – Mt. Lemmon Survey MPS 342018
2007 11 05.24584 01 09 02.19 +06 12 11.7 20.9 V G96 – Mt. Lemmon Survey MPS 342018
2007 11 05.25143 01 09 01.94 +06 12 09.4 20.9 V G96 – Mt. Lemmon Survey MPS 342018
2009 03 31.34868 13 25 32.48 -09 27 03.3 19.2 V G96 – Mt. Lemmon Survey MPS 342018
2009 03 31.36049 13 25 31.87 -09 26 58.0 19.3 V G96 – Mt. Lemmon Survey MPS 342018
2009 03 31.37230 13 25 31.29 -09 26 51.3 19.5 V G96 – Mt. Lemmon Survey MPS 342018
2009 03 31.38411 13 25 30.68 -09 26 45.6 19.4 V G96 – Mt. Lemmon Survey MPS 342018
2009 04 19.29639 13 09 22.82 -06 41 40.3 19.4 V G96 – Mt. Lemmon Survey MPS 286461
2009 04 19.30341 13 09 22.46 -06 41 36.6 19.5 V G96 – Mt. Lemmon Survey MPS 286461
2009 04 19.31050 13 09 22.10 -06 41 32.9 19.6 V G96 – Mt. Lemmon Survey MPS 286461
2009 04 19.31751 13 09 21.74 -06 41 29.2 19.4 V G96 – Mt. Lemmon Survey MPS 286461
2009 04 22.85245 13 06 37.11 -06 12 28.9 19.8 V J75 – OAM Observatory, La Sagra MPS 286461
2009 04 22.86571 13 06 36.49 -06 12 23.1 19.5 V J75 – OAM Observatory, La Sagra MPS 286461
2009 04 22.87885 13 06 35.81 -06 12 16.2 19.5 V J75 – OAM Observatory, La Sagra MPS 286461
2009 05 15.25818 12 56 12.73 -04 03 35.1 20.4 V G96 – Mt. Lemmon Survey MPS 342018
2009 05 15.26773 12 56 12.62 -04 03 33.3 20.4 V G96 – Mt. Lemmon Survey MPS 342018
2009 05 15.27733 12 56 12.55 -04 03 31.5 20.3 V G96 – Mt. Lemmon Survey MPS 342018
2009 05 15.28694 12 56 12.44 -04 03 29.5 20.0 V G96 – Mt. Lemmon Survey MPS 342018
2010 09 04.30081 23 06 18.18 -01 06 36.6 20.6 V G96 – Mt. Lemmon Survey MPS 347182
2010 09 04.30663 23 06 17.85 -01 06 39.4 20.5 V G96 – Mt. Lemmon Survey MPS 347182
2010 09 04.31250 23 06 17.53 -01 06 41.7 20.3 V G96 – Mt. Lemmon Survey MPS 347182
2010 09 04.31832 23 06 17.17 -01 06 44.2 20.6 V G96 – Mt. Lemmon Survey MPS 347182
2012 01 21.27249 08 53 31.88 +08 56 23.0 19.3 V 703 – Catalina Sky Survey MPS 408862
2012 01 21.27711 08 53 31.73 +08 56 24.1 19.6   704 – Lincoln Laboratory ETS, New Mexico MPS 408862
2012 01 21.27756 08 53 31.52 +08 56 23.4 19.4 V 703 – Catalina Sky Survey MPS 408862
2012 01 21.28264 08 53 31.27 +08 56 25.2 19.4 V 703 – Catalina Sky Survey MPS 408862
2012 01 21.28774 08 53 31.02 +08 56 24.7 19.8 V 703 – Catalina Sky Survey MPS 408862
2012 01 21.30327 08 53 30.20 +08 56 27.9 19.6   704 – Lincoln Laboratory ETS, New Mexico MPS 408862
2012 01 21.31651 08 53 29.28 +08 56 31.8 19.8   704 – Lincoln Laboratory ETS, New Mexico MPS 408862
2012 02 10.34011 08 33 37.341 +10 36 00.81 19.4 z F51 – Pan-STARRS 1, Haleakala MPS 411611
2012 02 10.35173 08 33 36.646 +10 36 05.14 19.2 z F51 – Pan-STARRS 1, Haleakala MPS 411611
2012 02 22.41847 08 24 00.495 +11 47 53.03 20.5 w F51 – Pan-STARRS 1, Haleakala MPS 413051
2012 02 22.43536 08 23 59.801 +11 47 58.76 20.5 w F51 – Pan-STARRS 1, Haleakala MPS 413051
2012 02 22.45216 08 23 59.139 +11 48 04.58 19.9 w F51 – Pan-STARRS 1, Haleakala MPS 413051
2012 02 22.46890 08 23 58.457 +11 48 10.20 20.1 w F51 – Pan-STARRS 1, Haleakala MPS 413051
2012 02 26.29612 08 21 50.00 +12 09 56.6 19.9 V G96 – Mt. Lemmon Survey MPS 414263
2012 02 26.30311 08 21 49.78 +12 09 58.8 19.8 V G96 – Mt. Lemmon Survey MPS 414263
2012 02 26.31007 08 21 49.57 +12 10 00.9 19.9 V G96 – Mt. Lemmon Survey MPS 414263
2012 03 29.16001 08 25 03.03 +14 10 36.4 20.7 V G96 – Mt. Lemmon Survey MPS 420238
2012 03 29.16578 08 25 03.28 +14 10 37.2 20.5 V G96 – Mt. Lemmon Survey MPS 420238
2012 03 29.17160 08 25 03.50 +14 10 37.6 20.6 V G96 – Mt. Lemmon Survey MPS 420238
2012 03 29.17740 08 25 03.72 +14 10 38.2 20.2 V G96 – Mt. Lemmon Survey MPS 420238
2013 09 02.15847 20 11 04.54 -13 41 18.7 20.7 V G96 – Mt. Lemmon Survey MPS 476071
2013 09 02.16604 20 11 04.33 -13 41 20.3 21.3 V G96 – Mt. Lemmon Survey MPS 476071
2013 09 02.17361 20 11 04.16 -13 41 22.6 21.0 V G96 – Mt. Lemmon Survey MPS 476071
2013 09 02.18112 20 11 03.95 -13 41 24.3 21.5 V G96 – Mt. Lemmon Survey MPS 476071
2014 11 17.35373 05 04 48.088 +17 05 59.97 20.5 w F51 – Pan-STARRS 1, Haleakala MPS 547434
2014 11 17.36660 05 04 47.403 +17 05 56.87 20.5 w F51 – Pan-STARRS 1, Haleakala MPS 547434
2014 11 17.37947 05 04 46.715 +17 05 53.74 20.3 w F51 – Pan-STARRS 1, Haleakala MPS 547434
2014 11 17.39234 05 04 46.025 +17 05 50.71 20.3 w F51 – Pan-STARRS 1, Haleakala MPS 547434
2014 11 18.34343 05 03 56.09 +17 01 53.6 20.6 r G45 – Space Surveillance Telescope, Atom Site MPS 558234
2014 11 18.34764 05 03 55.88 +17 01 52.7 20.4 r G45 – Space Surveillance Telescope, Atom Site MPS 558234
2014 11 18.35178 05 03 55.60 +17 01 51.4 20.0 r G45 – Space Surveillance Telescope, Atom Site MPS 558234
2014 11 18.35848 05 03 55.27 +17 01 50.0 20.5 r G45 – Space Surveillance Telescope, Atom Site MPS 558234
2014 11 19.37954 05 03 00.658 +16 57 37.47 20.2 w F51 – Pan-STARRS 1, Haleakala MPS 547434
2014 11 19.39238 05 02 59.919 +16 57 34.18 20.4 w F51 – Pan-STARRS 1, Haleakala MPS 547434
2014 11 19.40526 05 02 59.183 +16 57 31.07 20.2 w F51 – Pan-STARRS 1, Haleakala MPS 547434
2014 11 21.37657 05 01 08.772 +16 49 20.95 20.4 w F51 – Pan-STARRS 1, Haleakala MPS 549450
2014 11 21.38861 05 01 08.054 +16 49 17.96 20.1 w F51 – Pan-STARRS 1, Haleakala MPS 549450
2014 11 21.40070 05 01 07.331 +16 49 15.10 20.1 w F51 – Pan-STARRS 1, Haleakala MPS 549450
2014 11 21.41281 05 01 06.604 +16 49 12.08 20.4 w F51 – Pan-STARRS 1, Haleakala MPS 549450
2014 11 22.32879 05 00 13.22 +16 45 23.7 20.9 r G45 – Space Surveillance Telescope, Atom Site MPS 567007
2014 11 22.33307 05 00 12.98 +16 45 22.2 20.8 r G45 – Space Surveillance Telescope, Atom Site MPS 567007
2014 11 22.33721 05 00 12.75 +16 45 21.2 20.5 r G45 – Space Surveillance Telescope, Atom Site MPS 567007
2014 11 22.33984 05 00 12.60 +16 45 20.4 20.8 r G45 – Space Surveillance Telescope, Atom Site MPS 567007
2014 11 22.34392 05 00 12.32 +16 45 19.2 20.5 r G45 – Space Surveillance Telescope, Atom Site MPS 567007
